Weather reports worldwide

Advertisment
F16-A, Netherlands (6206): temperature & dewpoint: 01.08.2020 02:00:00 - 07.08.2020 02:00:00 (CEST)F16-A, Netherlands (6206): wind speed & gusts: 01.08.2020 02:00:00 - 07.08.2020 02:00:00 (CEST)F16-A, Netherlands (6206): wind direction: 01.08.2020 02:00:00 - 07.08.2020 02:00:00 (CEST)F16-A, Netherlands (6206): reduced air pressure: 01.08.2020 02:00:00 - 07.08.2020 02:00:00 (CEST)F16-A, Netherlands (6206): visibility: 01.08.2020 02:00:00 - 07.08.2020 02:00:00 (CEST)
Date & Time tt [°C] td [°C] ff [km/h] ff [kn] fx [km/h] fx [kn] dd ppp [hPa] vv [km]
07.08.2020 02:00:00 18,0 18,0 37 20 - - SE 1020,6 10
07.08.2020 01:00:00 18,1 17,5 34 18 29 16 SE 1020,6 10
07.08.2020 00:00:00 18,1 17,5 28 15 29 16 SE 1020,3 10
06.08.2020 23:00:00 18,0 17,5 29 16 29 16 SE 1020,4 10
06.08.2020 22:00:00 18,0 17,7 26 14 25 14 SSE 1020,2 10
06.08.2020 21:00:00 18,0 17,6 18 10 18 10 SSE 1019,8 10
06.08.2020 20:00:00 18,1 17,6 21 11 22 12 S 1019,8 10
06.08.2020 19:00:00 18,3 17,5 15 8 18 10 S 1019,7 10
06.08.2020 18:00:00 18,1 17,6 18 10 18 10 S 1019,7 10
06.08.2020 17:00:00 18,1 17,3 21 11 22 12 S 1019,8 10
06.08.2020 16:00:00 18,1 17,2 21 11 22 12 SSW 1019,6 10
06.08.2020 15:00:00 17,9 17,1 22 12 25 14 SSW 1019,4 10
06.08.2020 14:00:00 17,9 16,9 22 12 22 12 SSW 1019,2 10
06.08.2020 13:00:00 17,7 16,6 22 12 22 12 - 1018,9 10
06.08.2020 12:00:00 17,7 16,5 22 12 22 12 - 1018,6 10
06.08.2020 11:00:00 17,6 16,5 21 11 22 12 S 1018,0 10
06.08.2020 10:00:00 17,7 16,3 22 12 22 12 SW 1017,7 10
06.08.2020 09:00:00 17,8 16,1 24 13 25 14 SW 1017,1 10
06.08.2020 08:00:00 17,8 16,2 28 15 29 16 SSW 1016,3 10
06.08.2020 07:00:00 17,9 16,3 26 14 25 14 SSW 1015,9 10
06.08.2020 06:00:00 18,1 15,8 16 9 14 8 - 1015,3 10
06.08.2020 05:00:00 17,7 16,0 18 10 29 16 SW 1015,0 27
06.08.2020 04:00:00 17,8 15,8 26 14 29 16 S 1014,7 10
06.08.2020 03:00:00 18,0 15,2 39 21 36 19 SSW 1014,4 10
06.08.2020 02:00:00 18,2 14,7 32 18 40 21 SSW 1014,1 22
06.08.2020 01:00:00 18,5 14,3 41 22 40 21 SSW 1013,8 10
06.08.2020 00:00:00 18,5 14,3 44 24 43 23 SSW 1013,2 10
05.08.2020 23:00:00 18,6 14,1 44 24 47 25 S 1013,1 10
05.08.2020 22:00:00 18,4 14,6 37 20 36 19 S 1012,9 10
05.08.2020 21:00:00 18,4 14,7 32 18 40 21 S 1012,6 16
05.08.2020 20:00:00 18,6 14,5 44 24 43 23 S 1012,6 10
05.08.2020 19:00:00 18,4 14,8 48 26 47 25 S 1012,6 10
05.08.2020 18:00:00 18,1 14,7 50 27 50 27 SSW 1012,8 10
05.08.2020 17:00:00 17,9 15,3 50 27 50 27 SSW 1012,7 10
05.08.2020 16:00:00 17,8 15,1 44 24 47 25 SSW 1012,6 10
05.08.2020 15:00:00 17,6 15,2 44 24 47 25 SSW 1012,4 10
05.08.2020 14:00:00 17,5 15,6 46 25 47 25 SSW 1012,2 10
05.08.2020 13:00:00 17,2 15,4 48 26 47 25 SSW 1012,1 10
05.08.2020 12:00:00 17,2 15,0 46 25 47 25 - 1011,8 10
05.08.2020 11:00:00 17,2 14,6 44 24 50 27 - 1011,6 10
05.08.2020 10:00:00 17,4 14,5 48 26 50 27 - 1011,1 10
05.08.2020 09:00:00 17,4 14,9 40 21 50 27 SSW 1010,5 19
05.08.2020 08:00:00 17,4 15,0 48 26 47 25 SSW 1010,3 10
05.08.2020 07:00:00 17,4 15,4 48 26 50 27 - 1010,2 10
05.08.2020 06:00:00 17,4 15,4 52 28 50 27 SSW 1009,8 10
05.08.2020 05:00:00 17,4 15,1 55 30 58 31 SSW 1009,8 10
05.08.2020 04:00:00 17,5 15,0 55 30 54 29 SSW 1009,9 10
05.08.2020 03:00:00 17,4 14,3 52 28 61 33 SSW 1010,4 10
05.08.2020 02:00:00 17,6 14,4 59 32 65 35 SSW 1010,2 10
05.08.2020 01:00:00 17,6 14,2 61 33 61 33 SSW 1010,9 10
05.08.2020 00:00:00 17,6 13,8 61 33 61 33 S 1011,0 10
04.08.2020 23:00:00 17,6 13,7 57 31 58 31 S 1011,6 10
04.08.2020 22:00:00 17,4 13,0 55 30 58 31 S 1011,8 10
04.08.2020 21:00:00 17,2 12,4 54 29 54 29 S 1012,3 10
04.08.2020 20:00:00 17,0 11,8 54 29 50 27 S 1012,9 10
04.08.2020 19:00:00 16,8 11,5 52 28 50 27 S 1013,9 10
04.08.2020 18:00:00 16,8 10,8 50 27 50 27 SSW 1014,3 10
04.08.2020 17:00:00 16,7 11,9 41 22 43 23 SSW 1014,6 10
04.08.2020 16:00:00 16,7 10,8 29 16 32 18 S 1015,4 10
04.08.2020 15:00:00 16,5 11,5 28 15 36 19 SW 1016,0 10
04.08.2020 14:00:00 16,4 11,1 39 21 40 21 SSW 1016,1 10
04.08.2020 13:00:00 15,9 9,9 34 18 32 18 SSW 1016,4 10
04.08.2020 12:00:00 15,6 9,3 26 14 25 14 SSW 1016,6 10
04.08.2020 11:00:00 15,3 9,1 16 9 22 12 - 1016,6 10
04.08.2020 10:00:00 15,2 9,0 11 6 14 8 SW 1016,7 10
04.08.2020 09:00:00 15,3 9,8 11 6 14 8 W 1016,5 10
04.08.2020 08:00:00 15,9 9,6 13 7 22 12 WNW 1016,4 10
04.08.2020 07:00:00 15,3 9,3 18 10 22 12 WNW 1016,1 10
04.08.2020 06:00:00 14,9 8,7 18 10 25 14 WNW 1016,0 49
04.08.2020 05:00:00 14,7 8,6 21 11 22 12 WNW 1016,1 10
04.08.2020 04:00:00 14,8 8,1 18 10 22 12 WNW 1016,1 10
04.08.2020 03:00:00 14,8 8,5 21 11 25 14 WNW 1016,1 10
04.08.2020 02:00:00 14,9 8,1 22 12 25 14 NW 1016,3 10
04.08.2020 01:00:00 14,9 8,2 18 10 25 14 NW 1016,1 50
04.08.2020 00:00:00 15,0 9,2 21 11 25 14 NW 1016,0 10
03.08.2020 23:00:00 15,3 10,8 21 11 22 12 NW 1015,6 10
03.08.2020 22:00:00 15,4 10,9 22 12 29 16 NNW 1015,3 10
03.08.2020 21:00:00 15,6 11,8 22 12 25 14 NNW 1014,9 47
03.08.2020 20:00:00 15,6 11,0 16 9 22 12 NNW 1014,8 10
03.08.2020 19:00:00 15,4 11,0 21 11 32 18 NNW 1014,8 10
03.08.2020 18:00:00 16,2 11,7 13 7 32 18 WNW 1014,4 10
03.08.2020 17:00:00 17,2 11,7 4 2 7 4 WNW 1014,5 45
03.08.2020 16:00:00 16,7 11,6 4 2 7 4 - 1014,5 10
03.08.2020 15:00:00 16,7 11,6 2 1 7 4 - 1014,5 10
03.08.2020 14:00:00 16,5 11,9 4 2 7 4 NNE 1014,7 42
03.08.2020 13:00:00 16,1 12,0 4 2 7 4 E 1014,5 10
03.08.2020 12:00:00 16,1 12,1 8 4 11 6 ENE 1014,4 10
03.08.2020 11:00:00 16,4 12,3 8 4 14 8 NE 1014,4 10
03.08.2020 10:00:00 16,8 12,1 15 8 14 8 NNE 1013,9 10
03.08.2020 09:00:00 16,9 12,9 13 7 14 8 N 1013,7 10
03.08.2020 08:00:00 16,2 13,2 11 6 14 8 NNW 1013,8 36
03.08.2020 07:00:00 15,9 13,3 15 8 14 8 NW 1013,8 10
03.08.2020 06:00:00 15,9 13,4 15 8 18 10 WNW 1013,6 10
03.08.2020 05:00:00 15,9 14,0 16 9 18 10 W 1013,6 10
03.08.2020 04:00:00 16,0 13,6 15 8 14 8 WNW 1013,8 10
03.08.2020 03:00:00 16,2 13,7 16 9 18 10 W 1013,9 10
03.08.2020 02:00:00 16,7 13,9 16 9 18 10 WSW 1014,1 10
03.08.2020 01:00:00 16,6 13,5 13 7 14 8 SW 1014,4 10
03.08.2020 00:00:00 16,5 13,0 16 9 18 10 SW 1014,7 10
02.08.2020 23:00:00 16,3 12,5 13 7 14 8 SW 1014,8 10
02.08.2020 22:00:00 16,1 12,4 13 7 14 8 WSW 1014,8 10
02.08.2020 21:00:00 16,1 12,3 15 8 14 8 WSW 1014,7 10
02.08.2020 20:00:00 16,3 12,5 16 9 18 10 W 1014,6 10
02.08.2020 19:00:00 16,3 12,8 18 10 18 10 W 1014,6 10
02.08.2020 18:00:00 16,2 12,5 18 10 22 12 W 1014,7 10
02.08.2020 17:00:00 16,1 12,3 22 12 22 12 W 1014,7 10
02.08.2020 16:00:00 16,0 12,8 22 12 25 14 W 1014,7 10
02.08.2020 15:00:00 15,9 12,9 24 13 25 14 W 1014,7 10
02.08.2020 14:00:00 15,9 12,9 24 13 25 14 W 1014,4 10
02.08.2020 13:00:00 16,2 13,3 22 12 32 18 W 1014,2 10
02.08.2020 12:00:00 16,3 12,6 28 15 36 19 W 1013,8 10
02.08.2020 11:00:00 16,4 13,6 26 14 32 18 W 1013,3 10
02.08.2020 10:00:00 15,7 12,9 29 16 29 16 W 1012,9 10
02.08.2020 09:00:00 15,9 13,2 28 15 29 16 W 1012,7 10
02.08.2020 08:00:00 16,2 14,5 24 13 22 12 W 1012,5 10
02.08.2020 07:00:00 16,2 15,4 14 8 18 10 W 1012,5 28
02.08.2020 06:00:00 16,6 15,6 13 7 18 10 W 1012,5 10
02.08.2020 05:00:00 17,0 16,4 11 6 18 10 W 1012,6 10
02.08.2020 04:00:00 17,1 16,6 13 7 14 8 SSW 1012,6 10
02.08.2020 03:00:00 17,0 16,3 11 6 11 6 SSW 1012,8 10
02.08.2020 02:00:00 17,2 15,9 13 7 14 8 SSW 1013,3 10
02.08.2020 01:00:00 17,2 15,7 15 8 14 8 SW 1013,6 10
02.08.2020 00:00:00 16,9 15,5 15 8 18 10 SW 1013,9 10
01.08.2020 23:00:00 16,9 15,7 21 11 18 10 SW 1014,0 10
01.08.2020 22:00:00 16,7 15,7 18 10 18 10 - 1014,1 10
01.08.2020 21:00:00 16,7 15,5 15 8 14 8 SW 1013,8 10
01.08.2020 20:00:00 17,1 15,4 13 7 14 8 WSW 1013,8 10
01.08.2020 19:00:00 17,3 15,4 16 9 18 10 W 1013,7 10
01.08.2020 18:00:00 17,2 15,3 18 10 22 12 W 1013,9 10
01.08.2020 17:00:00 16,8 15,0 22 12 25 14 WSW 1013,8 10
01.08.2020 16:00:00 16,6 15,0 24 13 25 14 WSW 1013,7 10
01.08.2020 15:00:00 16,6 15,3 24 13 25 14 WSW 1013,4 10
01.08.2020 14:00:00 16,6 15,4 24 13 25 14 WSW 1013,2 10
01.08.2020 13:00:00 16,7 15,5 22 12 22 12 W 1012,7 10
01.08.2020 12:00:00 17,0 15,4 22 12 25 14 W 1012,4 10
01.08.2020 11:00:00 17,2 15,4 26 14 29 16 W 1011,7 10
01.08.2020 10:00:00 17,5 15,7 26 14 29 16 W 1011,0 10
01.08.2020 09:00:00 17,8 16,0 31 17 32 18 W 1010,5 10
01.08.2020 08:00:00 18,6 16,9 22 12 32 18 WSW 1009,8 10
01.08.2020 07:00:00 18,5 16,7 35 19 36 19 S 1010,1 10
01.08.2020 06:00:00 19,4 16,5 44 24 58 31 S 1010,0 10
01.08.2020 05:00:00 19,6 16,7 47 25 61 33 SSE 1010,3 10
01.08.2020 04:00:00 19,0 16,6 61 33 58 31 SE 1010,3 10
01.08.2020 03:00:00 19,1 16,6 52 28 54 29 SE 1010,8 10
01.08.2020 02:00:00 19,4 16,7 55 30 50 27 SE 1011,2 10

tt = temperature
td = dewpoint
ff = wind speed
fx = gusts
dd = wind direction
ppp = reduced air pressure
vv = visibility

Next stations